{"data":{"norad_id":64584,"epoch":"2026-09-21T21:26:30.387264Z","epoch_age_seconds":57196,"freshness":"FRESH","line1":"1 64584U 25135BJ  26264.89340726  .00001783  00000+0  14474-3 0  9993","line2":"2 64584  97.7303  21.2034 0001388 138.3486 221.7843 15.00905048 68589","mean_motion":15.00905048,"eccentricity":0.0001388,"inclination_deg":97.7303,"raan_deg":21.2034,"arg_perigee_deg":138.3486,"mean_anomaly_deg":221.7843,"bstar":0.00014474,"rev_number":6858,"period_min":95.942111855699,"perigee_km":563.14057155383,"apogee_km":565.06773769835,"semimajor_km":6942.2411546261,"source":"CELESTRAK","updated_at":"2026-09-22T09:00:29.854992Z"}}